Daviess Cnty AP, Washington,, IN

5:53 PM EST on December 07, 2019 (GMT -0500)
Daviess County

Weather History for KDCY - October, 2019

Change the Weather History Date:

Monday, October 14, 2019

  Actual Average (KLWV) Record (KLWV)
Temperature  
Mean Temperature 52 °F -  
Max Temperature 68 °F 67 °F 86 °F (2017)
Min Temperature 35 °F 43 °F 32 °F (2002)
Degree Days  
Heating Degree Days 14    
Growing Degree Days 2 (Base 50)    
Moisture  
Dew Point 37 °F    
Average Humidity 62    
Maximum Humidity 99    
Minimum Humidity 23    
Precipitation  
Precipitation 0.00 in - - ()
Sea Level Pressure  
Sea Level Pressure 30.07 in    
Wind  
Wind Speed 5 mph (West)    
Max Wind Speed 9 mph    
Max Gust Speed -    
Visibility 10 miles    
Events      
Averages and records for this station are not official NWS values.
T = Trace of Precipitation, MM = Missing Value Source: NWS Daily Summary

Daily Weather History Graph

Daily Weather History Graph

Search for Another Location

Airport or City:

Astronomy

Oct. 14, 2019 Rise Set
Actual Time 7:56 AM EDT 7:11 PM EDT
Civil Twilight 7:29 AM EDT 7:38 PM EDT
Nautical Twilight 6:58 AM EDT 8:09 PM EDT
Astronomical Twilight 6:28 AM EDT 8:40 PM EDT
Moon 8:01 PM EDT (10/14) 8:28 AM EDT (10/14)
Length of Visible Light 12h 08m
Length of Day
11h 15m
Waxing Gibbous, 99% of the Moon is Illuminated
Oct 14
Waxing Gibbous
Oct 21
Last Quarter
Oct 27
New
Nov 4
First Quarter
Nov 12
Full

Hourly Weather History & Observations

Time (EDT) Temp. Windchill Dew Point Humidity Pressure Visibility Wind Dir Wind Speed Gust Speed Precip Events Conditions
12:15 AM 54.1 °F - 38.3 °F 55% 29.98 in 10.0 mi SW 9.2 mph - N/A   Clear
12:40 AM 53.2 °F - 38.5 °F 57% 29.98 in 10.0 mi SW 8.1 mph - N/A   Clear
12:55 AM 52.9 °F - 38.8 °F 59% 29.98 in 10.0 mi SSW 9.2 mph - N/A   Clear
1:15 AM 52.7 °F - 39.2 °F 60% 29.99 in 10.0 mi WSW 8.1 mph - N/A   Clear
1:35 AM 51.8 °F - 39.2 °F 62% 29.99 in 10.0 mi WSW 8.1 mph - N/A   Clear
1:55 AM 51.4 °F - 39.2 °F 63% 30.00 in 10.0 mi WSW 6.9 mph - N/A   Clear
2:15 AM 51.4 °F - 39.2 °F 63% 30.00 in 10.0 mi WSW 8.1 mph - N/A   Clear
2:35 AM 50.4 °F - 39.2 °F 66% 30.00 in 10.0 mi WSW 8.1 mph - N/A   Clear
2:55 AM 50.0 °F - 39.2 °F 66% 30.01 in 10.0 mi WSW 9.2 mph - N/A   Clear
3:15 AM 50.0 °F - 39.2 °F 66% 30.01 in 10.0 mi WSW 8.1 mph - N/A   Clear
3:35 AM 49.1 °F - 39.4 °F 69% 30.01 in 10.0 mi West 6.9 mph - N/A   Clear
3:55 AM 46.9 °F - 39.4 °F 75% 30.02 in 10.0 mi West 4.6 mph - N/A   Clear
4:15 AM 45.7 °F 42.7 °F 39.2 °F 78% 30.02 in 10.0 mi West 5.8 mph - N/A   Clear
4:35 AM 45.3 °F - 39.0 °F 79% 30.03 in 10.0 mi Calm Calm - N/A   Clear
4:55 AM 43.9 °F 42.3 °F 38.3 °F 81% 30.03 in 10.0 mi West 3.5 mph - N/A   Clear
5:15 AM 43.0 °F 38.8 °F 38.7 °F 85% 30.04 in 10.0 mi West 6.9 mph - N/A   Clear
5:35 AM 43.0 °F 38.8 °F 38.7 °F 85% 30.04 in 10.0 mi West 6.9 mph - N/A   Clear
5:55 AM 41.7 °F - 37.9 °F 86% 30.04 in 10.0 mi Calm Calm - N/A   Clear
6:15 AM 40.3 °F 38.2 °F 37.0 °F 88% 30.04 in 10.0 mi West 3.5 mph - N/A   Clear
6:35 AM 40.8 °F - 37.2 °F 87% 30.05 in 10.0 mi Calm Calm - N/A   Clear
6:55 AM 38.3 °F - 35.8 °F 91% 30.06 in 10.0 mi Calm Calm - N/A   Clear
7:15 AM 37.9 °F - 37.4 °F 98% 30.07 in 10.0 mi Calm Calm - N/A   Clear
7:35 AM 37.0 °F - 36.9 °F 99% 30.08 in 10.0 mi Calm Calm - N/A   Clear
7:55 AM 36.5 °F - 36.3 °F 99% 30.08 in 10.0 mi Calm Calm - N/A   Clear
8:15 AM 35.8 °F - 35.6 °F 99% 30.08 in 10.0 mi Calm Calm - N/A   Clear
8:35 AM 37.0 °F - 36.9 °F 99% 30.08 in 10.0 mi Calm Calm - N/A   Clear
8:55 AM 41.5 °F - 41.2 °F 99% 30.09 in 10.0 mi Calm Calm - N/A   Clear
9:15 AM 45.5 °F - 44.1 °F 95% 30.11 in 10.0 mi Calm Calm - N/A   Clear
9:35 AM 47.7 °F - 43.0 °F 84% 30.12 in 10.0 mi Calm Calm - N/A   Clear
9:55 AM 49.5 °F - 41.4 °F 74% 30.12 in 10.0 mi Calm Calm - N/A   Clear
10:15 AM 51.6 °F - 41.9 °F 69% 30.13 in 10.0 mi Calm Calm - N/A   Clear
10:35 AM 54.3 °F - 41.7 °F 62% 30.13 in 10.0 mi Calm Calm - N/A   Clear
10:55 AM 55.6 °F - 39.9 °F 56% 30.14 in 10.0 mi Calm Calm - N/A   Clear
11:15 AM 56.8 °F - 38.8 °F 51% 30.13 in 10.0 mi WNW 3.5 mph - N/A   Clear
11:35 AM 58.5 °F - 38.8 °F 48% 30.14 in 10.0 mi WNW 4.6 mph - N/A   Clear
11:55 AM 60.1 °F - 38.5 °F 45% 30.14 in 10.0 mi West 5.8 mph - N/A   Clear
12:15 PM 61.0 °F - 38.1 °F 43% 30.14 in 10.0 mi WSW 6.9 mph - N/A   Clear
12:35 PM 62.4 °F - 35.4 °F 37% 30.14 in 10.0 mi West 3.5 mph - N/A   Clear
12:55 PM 63.0 °F - 33.6 °F 33% 30.14 in 10.0 mi West 4.6 mph - N/A   Clear
1:15 PM 62.8 °F - 32.7 °F 32% 30.13 in 10.0 mi West 3.5 mph - N/A   Clear
1:35 PM 64.8 °F - 30.9 °F 28% 30.12 in 10.0 mi WNW 5.8 mph - N/A   Clear
1:55 PM 65.8 °F - 30.4 °F 27% 30.12 in 10.0 mi WSW 8.1 mph - N/A   Clear
2:15 PM 65.7 °F - 29.5 °F 26% 30.11 in 10.0 mi WSW 5.8 mph - N/A   Clear
2:35 PM 66.4 °F - 27.1 °F 23% 30.10 in 10.0 mi West 4.6 mph - N/A   Clear
2:55 PM 66.9 °F - 29.1 °F 24% 30.10 in 10.0 mi NW 6.9 mph - N/A   Clear
3:15 PM 66.9 °F - 29.3 °F 24% 30.08 in 10.0 mi NW 8.1 mph - N/A   Clear
3:35 PM 66.9 °F - 30.0 °F 25% 30.08 in 10.0 mi WNW 6.9 mph - N/A   Clear
3:50 PM 67.3 °F - 30.2 °F 25% 30.08 in 10.0 mi West 9.2 mph - N/A   Clear
4:15 PM 68.0 °F - 29.3 °F 24% 30.08 in 10.0 mi West 8.1 mph - N/A   Clear
4:35 PM 67.8 °F - 28.8 °F 23% 30.08 in 10.0 mi WNW 3.5 mph - N/A   Clear
4:55 PM 68.2 °F - 29.1 °F 23% 30.07 in 10.0 mi North 3.5 mph - N/A   Clear
5:15 PM 67.3 °F - 28.2 °F 23% 30.07 in 10.0 mi NNW 4.6 mph - N/A   Clear
5:35 PM 67.5 °F - 28.2 °F 23% 30.07 in 10.0 mi West 3.5 mph - N/A   Clear
5:55 PM 67.1 °F - 28.9 °F 24% 30.07 in 10.0 mi NW 3.5 mph - N/A   Clear
6:10 PM 66.7 °F - 29.8 °F 25% 30.07 in 10.0 mi West 3.5 mph - N/A   Clear
6:35 PM 65.1 °F - 32.2 °F 29% 30.07 in 10.0 mi Calm Calm - N/A   Clear
6:55 PM 59.2 °F - 40.5 °F 50% 30.07 in 10.0 mi Calm Calm - N/A   Clear
7:15 PM 52.0 °F - 40.1 °F 64% 30.07 in 10.0 mi Calm Calm - N/A   Clear
7:35 PM 49.3 °F - 39.2 °F 68% 30.07 in 10.0 mi Calm Calm - N/A   Clear
7:55 PM 48.2 °F - 39.0 °F 71% 30.07 in 10.0 mi Calm Calm - N/A   Clear
8:15 PM 46.2 °F - 38.3 °F 74% 30.08 in 10.0 mi Calm Calm - N/A   Clear
8:35 PM 46.0 °F - 38.7 °F 75% 30.08 in 10.0 mi Calm Calm - N/A   Clear
8:55 PM 43.7 °F - 38.3 °F 81% 30.08 in 10.0 mi Calm Calm - N/A   Clear
9:15 PM 46.2 °F - 37.2 °F 71% 30.08 in 10.0 mi Calm Calm - N/A   Clear
9:35 PM 45.0 °F - 37.9 °F 76% 30.08 in 10.0 mi Calm Calm - N/A   Clear
9:55 PM 43.9 °F - 38.3 °F 81% 30.08 in 10.0 mi Calm Calm - N/A   Clear
10:15 PM 41.0 °F - 38.3 °F 90% 30.08 in 10.0 mi Calm Calm - N/A   Clear
10:35 PM 42.6 °F - 37.8 °F 83% 30.08 in 10.0 mi Calm Calm - N/A   Clear
10:55 PM 41.5 °F - 37.4 °F 85% 30.08 in 10.0 mi Calm Calm - N/A   Clear
11:15 PM 41.7 °F - 37.6 °F 85% 30.08 in 10.0 mi Calm Calm - N/A   Clear
11:35 PM 41.2 °F - 38.8 °F 91% 30.08 in 10.0 mi Calm Calm - N/A   Clear
11:55 PM 40.1 °F - 36.9 °F 88% 30.08 in 10.0 mi Calm Calm - N/A   Clear